This is the latest recevied weather packets stored in our database for station/object W4SKW. If no packets are shown the sender has not sent any weather packets the latest 1 day(s).
| Time | Temp. | Humidity | Pressure | Rain* | Wind** | Luminosity | Snow |
|---|---|---|---|---|---|---|---|
| 1778090078 | 20.56° C | 94% | 1015.4 hPa | 0 mm | - | 67 W/m² | - |
| 1778089775 | 20.56° C | 94% | 1015.4 hPa | 0 mm | - | 67 W/m² | - |
| 1778088866 | 20.56° C | 94% | 1015.4 hPa | 0 mm | - | 77 W/m² | - |
| 1778088563 | 20.56° C | 93% | 1015.3 hPa | 0 mm | - | 77 W/m² | - |
| 1778088260 | 20.56° C | 93% | 1015.4 hPa | 0 mm | - | 59 W/m² | - |
| 1778087352 | 21.11° C | 92% | 1015.1 hPa | 0 mm | - | 130 W/m² | - |
| 1778086747 | 20.56° C | 92% | 1015.1 hPa | 0 mm | - | 177 W/m² | - |
| 1778085321 | 20° C | 95% | 1015.2 hPa | 0 mm | - | 365 W/m² | - |
| 1778083798 | 18.89° C | 96% | 1015.4 hPa | 0 mm | - | 114 W/m² | - |
| 1778083496 | 18.89° C | 95% | 1015.5 hPa | 0 mm | - | 144 W/m² | - |
| 1778083193 | 18.89° C | 95% | 1015.8 hPa | 0 mm | - | 57 W/m² | - |
| 1778082891 | 18.89° C | 95% | 1015.9 hPa | 0 mm | - | 49 W/m² | - |
| 1778081783 | 18.89° C | 95% | 1016 hPa | 0 mm | - | 37 W/m² | - |
| 1778080875 | 18.89° C | 94% | 1015.3 hPa | 0 mm | - | 18 W/m² | - |
| 1778080270 | 18.33° C | 94% | 1014.9 hPa | 3.05 mm | - | 94 W/m² | - |
| 1778078982 | 18.33° C | 92% | 1016.7 hPa | 1.27 mm | - | 63 W/m² | - |
| 1778078678 | 18.33° C | 92% | 1016.7 hPa | 1.27 mm | - | 63 W/m² | - |
| 1778077167 | 18.33° C | 92% | 1015.7 hPa | 0 mm | - | 65 W/m² | - |
| 1778075046 | 18.33° C | 88% | 1015.8 hPa | 0 mm | - | 12 W/m² | - |
| 1778074743 | 18.33° C | 88% | 1015.5 hPa | 0 mm | - | 18 W/m² | - |
| 1778074136 | 18.33° C | 87% | 1015.5 hPa | 0 mm | - | 15 W/m² | - |
| 1778072621 | 18.33° C | 88% | 1015 hPa | 0 mm | - | 41 W/m² | - |
| 1778071412 | 18.33° C | 88% | 1015.1 hPa | 0 mm | - | 16 W/m² | - |
| 1778070808 | 18.33° C | 87% | 1015 hPa | 0 mm | - | 25 W/m² | - |
| 1778070505 | 18.33° C | 88% | 1014.6 hPa | 0 mm | - | 26 W/m² | - |
* Rain latest hour (hover to see other rain measurements)
** Current wind speed in m/s (hover to see current wind gust speed)